Weather in Volokonovka

Russia / Belgorod Oblast     50°29′09″N   37°50′27″E
temp.,
°C
wind,
m/s
gust,
m/s
humid.,
%
clouds,
%
prec.,
mm/h
press.,
hPa
HPBL,
m
16 may, sun
sun1600:00+15ssw11764 0.0 101311
03:00+14se11740 0.0 101411
06:00+15sse0074100 0.0 101311
09:00+20e226244 0.0 1014320
12:00+24e235491 0.0 10131254
15:00+25ene3454100 0.0 10121568
18:00+23ne467174 0.0 1010246
21:00+19ne478512 0.2 1010107
17 may, mon
mon1700:00+16e487798 0.0 1010109
03:00+14e4137521 0.0 1008201
06:00+14e412785 0.0 1008210
09:00+20ese7166116 0.0 1008681
12:00+24se9175565 0.0 10071541
15:00+25se712574 0.0 10071346
18:00+22se611665 0.0 1007647
21:00+18se4128025 0.0 1007240
18 may, tue
tue1800:00+16sse339068 0.1 100760
03:00+15s349420 0.1 100867
06:00+15ssw249396 0.1 1008155
09:00+19wsw226989 0.1 1008495
12:00+22sse015899 0.0 10081229
15:00+21wsw336999 0.2 1007530
18:00+20ssw2478100 0.3 1006350
21:00+17s2284100 0.9 100639
19 may, wed
wed1900:00+15s3895100 1.0 1006338
03:00+13se3898100 1.1 1005231
06:00+13s489799 0.0 1006430
09:00+14s489363 0.3 1006606
12:00+18s796644 0.8 10061538
15:00+16s797365 1.4 10061069
18:00+16ssw68786 1.0 1006991
21:00+12s51092100 1.3 1007494
20 may, thu
thu2000:00+11ssw61196100 0.4 1007670
03:00+11ssw71194100 0.6 1007709
06:00+11sw61192100 0.3 1009749
09:00+11sw6119070 0.6 1010860
12:00+15sw8127192 0.3 10121484
15:00+18wsw696091 0.4 10121699
18:00+18w2467100 0.0 1013968
21:00+13ene338098 0.0 101334